TimeEDT,TemperatureF,Dew PointF,Humidity,Sea Level PressureIn,VisibilityMPH,Wind Direction,Wind SpeedMPH,Gust SpeedMPH,PrecipitationIn,Events,Conditions,WindDirDegrees,DateUTC
12:17 AM,50.0,50.0,100,29.82,7.0,SSW,3.5,-,N/A,Rain,Rain,200,2013-10-07 04:17:00
12:36 AM,51.8,50.0,94,29.81,7.0,SSW,4.6,-,N/A,Rain,Rain,200,2013-10-07 04:36:00
12:57 AM,51.8,50.0,94,29.79,7.0,Calm,Calm,-,N/A,Rain,Rain,0,2013-10-07 04:57:00
1:17 AM,51.8,50.0,94,29.81,10.0,SSW,5.8,-,N/A,Rain,Rain,200,2013-10-07 05:17:00
1:36 AM,51.8,50.0,94,29.81,10.0,SSW,6.9,-,N/A,Rain,Light Rain,200,2013-10-07 05:36:00
1:57 AM,51.8,50.0,94,29.80,7.0,SW,4.6,-,N/A,Rain,Light Rain,230,2013-10-07 05:57:00
2:17 AM,50.0,46.4,87,29.81,10.0,West,6.9,18.4,0.01,Rain,Light Rain,280,2013-10-07 06:17:00
2:36 AM,50.0,46.4,87,29.82,10.0,West,4.6,-,0.01,Rain,Light Rain,260,2013-10-07 06:36:00
2:57 AM,50.0,46.4,87,29.82,10.0,West,4.6,-,0.01,,Mostly Cloudy,260,2013-10-07 06:57:00
3:17 AM,48.2,46.4,93,29.81,10.0,WSW,3.5,-,N/A,,Scattered Clouds,250,2013-10-07 07:17:00
3:36 AM,48.2,44.6,87,29.83,10.0,WSW,5.8,-,N/A,,Scattered Clouds,240,2013-10-07 07:36:00
3:57 AM,46.4,44.6,93,29.82,10.0,West,5.8,-,N/A,,Mostly Cloudy,260,2013-10-07 07:57:00
4:17 AM,46.4,44.6,93,29.83,10.0,WSW,4.6,-,N/A,,Scattered Clouds,250,2013-10-07 08:17:00
4:37 AM,46.4,42.8,87,29.83,10.0,West,4.6,-,N/A,,Clear,260,2013-10-07 08:37:00
4:57 AM,46.4,42.8,87,29.83,10.0,WSW,4.6,-,N/A,,Scattered Clouds,250,2013-10-07 08:57:00
5:17 AM,44.6,42.8,93,29.84,10.0,WSW,3.5,-,N/A,,Clear,240,2013-10-07 09:17:00
5:37 AM,44.6,42.8,93,29.84,10.0,SW,4.6,-,N/A,,Clear,230,2013-10-07 09:37:00
5:57 AM,44.6,41.0,87,29.85,10.0,SW,3.5,-,N/A,,Clear,230,2013-10-07 09:57:00
6:17 AM,42.8,41.0,93,29.85,10.0,SW,3.5,-,N/A,,Clear,220,2013-10-07 10:17:00
6:37 AM,42.8,41.0,93,29.85,10.0,SW,4.6,-,N/A,,Clear,230,2013-10-07 10:37:00
6:57 AM,42.8,41.0,93,29.85,10.0,WSW,4.6,-,N/A,,Clear,240,2013-10-07 10:57:00
7:17 AM,42.8,41.0,93,29.86,10.0,WSW,4.6,-,N/A,,Clear,240,2013-10-07 11:17:00
7:37 AM,42.8,41.0,93,29.86,10.0,SW,4.6,-,N/A,,Scattered Clouds,220,2013-10-07 11:37:00
7:57 AM,42.8,41.0,93,29.87,10.0,SSW,3.5,-,N/A,,Mostly Cloudy,210,2013-10-07 11:57:00
8:17 AM,44.6,42.8,93,29.87,10.0,Calm,Calm,-,N/A,,Overcast,0,2013-10-07 12:17:00
8:37 AM,44.6,42.8,93,29.87,10.0,SSW,3.5,-,N/A,,Overcast,200,2013-10-07 12:37:00
8:57 AM,44.6,42.8,93,29.88,10.0,SSW,4.6,-,N/A,,Overcast,210,2013-10-07 12:57:00
9:17 AM,46.4,42.8,87,29.88,10.0,SW,6.9,-,N/A,,Overcast,220,2013-10-07 13:17:00
9:37 AM,50.0,44.6,82,29.90,10.0,WSW,9.2,-,N/A,,Overcast,240,2013-10-07 13:37:00
9:57 AM,48.2,42.8,82,29.90,10.0,WSW,9.2,16.1,N/A,,Overcast,240,2013-10-07 13:57:00
10:16 AM,48.2,42.8,82,29.90,10.0,WSW,6.9,-,N/A,,Overcast,240,2013-10-07 14:16:00
10:37 AM,50.0,42.8,76,29.91,10.0,WSW,8.1,16.1,N/A,,Overcast,250,2013-10-07 14:37:00
10:57 AM,50.0,44.6,82,29.91,10.0,West,9.2,-,N/A,,Overcast,270,2013-10-07 14:57:00
11:16 AM,50.0,42.8,76,29.92,10.0,West,11.5,17.3,N/A,,Overcast,260,2013-10-07 15:16:00
11:37 AM,51.8,44.6,76,29.93,10.0,West,10.4,-,N/A,,Overcast,260,2013-10-07 15:37:00
11:57 AM,51.8,42.8,71,29.93,10.0,West,10.4,18.4,N/A,,Overcast,270,2013-10-07 15:57:00
12:17 PM,50.0,42.8,76,29.93,10.0,West,8.1,-,N/A,,Overcast,280,2013-10-07 16:17:00
12:37 PM,53.6,42.8,67,29.94,10.0,West,8.1,-,N/A,,Overcast,260,2013-10-07 16:37:00
12:57 PM,53.6,42.8,67,29.94,10.0,West,8.1,16.1,N/A,,Overcast,270,2013-10-07 16:57:00
1:17 PM,55.4,41.0,58,29.95,10.0,WSW,10.4,18.4,N/A,,Mostly Cloudy,250,2013-10-07 17:17:00
1:37 PM,57.2,41.0,55,29.95,10.0,West,10.4,18.4,N/A,,Mostly Cloudy,260,2013-10-07 17:37:00
1:57 PM,57.2,39.2,51,29.94,10.0,West,9.2,-,N/A,,Scattered Clouds,280,2013-10-07 17:57:00
2:16 PM,59.0,39.2,48,29.95,10.0,West,12.7,17.3,N/A,,Scattered Clouds,270,2013-10-07 18:16:00
2:37 PM,60.8,41.0,48,29.95,10.0,WNW,8.1,17.3,N/A,,Mostly Cloudy,290,2013-10-07 18:37:00
2:57 PM,59.0,41.0,51,29.96,10.0,West,8.1,-,N/A,,Mostly Cloudy,280,2013-10-07 18:57:00
3:17 PM,60.8,41.0,48,29.97,10.0,WSW,8.1,-,N/A,,Scattered Clouds,250,2013-10-07 19:17:00
3:37 PM,59.0,39.2,48,29.97,10.0,West,6.9,-,N/A,,Mostly Cloudy,260,2013-10-07 19:37:00
3:57 PM,60.8,41.0,48,29.98,10.0,WSW,8.1,18.4,N/A,,Scattered Clouds,250,2013-10-07 19:57:00
4:17 PM,59.0,41.0,51,29.98,10.0,West,13.8,19.6,N/A,,Mostly Cloudy,280,2013-10-07 20:17:00
4:37 PM,57.2,41.0,55,29.99,10.0,West,12.7,18.4,N/A,,Mostly Cloudy,270,2013-10-07 20:37:00
4:57 PM,57.2,41.0,55,29.99,10.0,West,12.7,16.1,N/A,,Overcast,270,2013-10-07 20:57:00
5:17 PM,55.4,41.0,58,30.00,10.0,West,10.4,-,N/A,,Overcast,270,2013-10-07 21:17:00
5:37 PM,55.4,41.0,58,30.01,10.0,West,8.1,-,N/A,,Overcast,270,2013-10-07 21:37:00
5:57 PM,55.4,41.0,58,30.01,10.0,West,8.1,-,N/A,,Overcast,280,2013-10-07 21:57:00
6:17 PM,55.4,41.0,58,30.02,10.0,West,5.8,-,N/A,,Overcast,270,2013-10-07 22:17:00
6:37 PM,55.4,42.8,63,30.03,10.0,West,4.6,-,N/A,,Overcast,270,2013-10-07 22:37:00
6:57 PM,55.4,41.0,58,30.04,10.0,West,4.6,-,N/A,,Overcast,270,2013-10-07 22:57:00
7:17 PM,53.6,42.8,67,30.05,10.0,WSW,5.8,-,N/A,,Overcast,250,2013-10-07 23:17:00
7:37 PM,53.6,42.8,67,30.06,10.0,West,4.6,-,N/A,,Overcast,270,2013-10-07 23:37:00
7:57 PM,51.8,42.8,71,30.07,10.0,WSW,3.5,-,N/A,,Scattered Clouds,250,2013-10-07 23:57:00
8:17 PM,50.0,42.8,76,30.08,10.0,WSW,3.5,-,N/A,,Clear,250,2013-10-08 00:17:00
8:37 PM,50.0,42.8,76,30.09,10.0,WSW,3.5,-,N/A,,Clear,250,2013-10-08 00:37:00
8:57 PM,50.0,42.8,76,30.10,10.0,WSW,3.5,-,N/A,,Clear,250,2013-10-08 00:57:00
9:17 PM,46.4,42.8,87,30.11,10.0,Calm,Calm,-,N/A,,Clear,0,2013-10-08 01:17:00
9:37 PM,46.4,42.8,87,30.12,10.0,Calm,Calm,-,N/A,,Clear,0,2013-10-08 01:37:00
9:57 PM,44.6,42.8,93,30.13,10.0,Calm,Calm,-,N/A,,Clear,0,2013-10-08 01:57:00
10:17 PM,44.6,42.8,93,30.14,10.0,Calm,Calm,-,N/A,,Clear,0,2013-10-08 02:17:00
10:37 PM,42.8,42.8,100,30.15,10.0,Calm,Calm,-,N/A,,Clear,0,2013-10-08 02:37:00
10:57 PM,42.8,42.8,100,30.15,10.0,Calm,Calm,-,N/A,,Clear,0,2013-10-08 02:57:00
11:17 PM,42.8,41.0,93,30.16,10.0,Calm,Calm,-,N/A,,Clear,0,2013-10-08 03:17:00
11:37 PM,42.8,41.0,93,30.17,10.0,Calm,Calm,-,N/A,,Clear,0,2013-10-08 03:37:00
11:57 PM,42.8,41.0,93,30.17,10.0,Calm,Calm,-,N/A,,Clear,0,2013-10-08 03:57:00